Zurück zum Katalog

FENGYUN 1C DEB

AktivLEO
NORAD 35217·DEBRIS·🇨🇳 China

Gestartet May 10, 1999 von Taiyuan Satellite Launch Center

Loading…

Nächste Überflüge (nächste 24 Stunden)

TLE

AlterndSource: Space-Track

Epoche: Sep 11, 2026, 15:35 UTC

1 35217U 99025DPZ 26254.64958499  .00001505  00000-0  15977-2 0  9998
2 35217 101.8819 231.6366 0300842  23.6180 337.8440 13.58546845649245

Verfolge FENGYUN 1C DEB in Echtzeit mit AllMySat

Download on the App Store